This demonstration page uses our WeatherBlox Daily Observations layout. Learn more.

Left ArrowRight Arrow

36.17497, -115.13722

Hourly Observations for November 7, 2021

Temp ( °F °C ) Dew Point ( °F °C ) Humidity (%) Winds ( mph kmh ) Pressure ( in mb ) Visibility ( mi km ) Precip ( " mm )
12:53 am 00:53 Clear 68 20 29 -1.7 23 23 NE 5 7 29.94 1014 10 16 0.00 0.00
1:53 am 01:53 Clear 66 18.9 29 -1.7 25 25 Calm 29.93 1014 10 16 0.00 0.00
1:53 am 01:53 Clear 71 21.7 23 -5 16 16 S 13 20 29.92 1013 10 16 0.00 0.00
2:53 am 02:53 Clear 65 18.3 27 -2.8 24 24 E 5 7 29.93 1013 10 16 0.00 0.00
3:53 am 03:53 Clear 62 16.7 29 -1.7 29 29 Calm 29.93 1014 10 16 0.00 0.00
4:53 am 04:53 Clear 60 15.6 25 -3.9 26 26 Calm 29.95 1014 10 16 0.00 0.00
5:53 am 05:53 Clear 58 14.4 27 -2.8 31 31 N 5 7 29.96 1015 10 16 0.00 0.00
6:53 am 06:53 Sunny 58 14.4 28 -2.2 32 32 Calm 29.97 1015 10 16 0.00 0.00
7:53 am 07:53 Sunny 64 17.8 28 -2.2 26 26 Calm 29.98 1015 10 16 0.00 0.00
8:53 am 08:53 Sunny 71 21.7 25 -3.9 18 18 E 7 11 29.98 1015 10 16 0.00 0.00
9:53 am 09:53 Sunny 77 25 20 -6.7 12 12 SE 10 17 29.96 1015 10 16 0.00 0.00
10:53 am 10:53 Sunny 81 27.2 18 -7.8 9 9 SE 16 26 29.93 1014 10 16 0.00 0.00
11:49 am 11:49 Sunny 82 28 23 -5 11 11 SSE 14 22 29.77 1008 10 16 0.00 0.00
11:53 am 11:53 Sunny 83 28.3 23 -5 11 11 SSE 18 30 29.90 1012 10 16 0.00 0.00
12:53 pm 12:53 Sunny 84 28.9 24 -4.4 11 11 S 18 30 29.88 1012 10 16 0.00 0.00
1:53 pm 13:53 Sunny 83 28.3 21 -6.1 10 10 S 15 24 29.86 1011 10 16 0.00 0.00
2:53 pm 14:53 Sunny 83 28.3 24 -4.4 11 11 SW 14 22 29.87 1012 10 16 0.00 0.00
3:53 pm 15:53 Sunny 82 27.8 21 -6.1 10 10 WSW 15 24 29.87 1012 10 16 0.00 0.00
4:53 pm 16:53 Clear 78 25.6 16 -8.9 9 9 SW 16 26 29.88 1012 10 16 0.00 0.00
5:53 pm 17:53 Clear 74 23.3 17 -8.3 11 11 S 10 17 29.90 1013 10 16 0.00 0.00
6:53 pm 18:53 Clear 74 23.3 15 -9.4 10 10 S 10 17 29.91 1013 10 16 0.00 0.00
7:53 pm 19:53 Clear 72 22.2 17 -8.3 12 12 S 9 15 29.91 1013 10 16 0.00 0.00
8:53 pm 20:53 Clear 70 21.1 21 -6.1 16 16 S 9 15 29.92 1013 10 16 0.00 0.00
9:53 pm 21:53 Clear 70 21.1 22 -5.6 16 16 S 12 19 29.92 1013 10 16 0.00 0.00
10:53 pm 22:53 Clear 71 21.7 24 -4.4 17 17 S 9 15 29.92 1013 10 16 0.00 0.00
11:53 pm 23:53 Clear 69 20.6 26 -3.3 20 20 S 10 17 29.92 1013 10 16 0.00 0.00

Powered by AerisWeather